Location: Laguna de la Cañada del Gallo
(40.3974°N, 5.2096°W)
Time: 08:38:50
(UTC+00:00)

SJ-6B - Visible Passes

Search period start: 18 July 2024 00:00
Search period end: 28 July 2024 00:00
Orbit: 489 x 545 km, 97.4° (Epoch: 17 July)

Date Brightness Start Highest point End Pass type
(mag) Time Alt. Az. Time Alt. Az. Time Alt. Az.
20 Jul 5.8 20:53:55 10° WSW 20:55:17 12° W 20:56:39 10° WNW visible
21 Jul 5.5 20:38:06 10° SW 20:40:42 17° W 20:43:20 10° NW visible
22 Jul 5.1 20:22:54 10° SSW 20:26:08 25° W 20:29:25 10° NW visible
27 Jul 5.7 20:45:33 10° SW 20:47:42 14° W 20:49:54 10° WNW visible
